Time,TemperatureF,DewpointF,PressureIn,WindDirection,WindDirectionDegrees,WindSpeedMPH,WindSpeedGustMPH,Humidity,HourlyPrecipIn,Conditions,Clouds,dailyrainin,SoftwareType,DateUTC
2013-04-17 00:00:00,50.4,47.9,30.20,NE,53,0.0,0.0,91,0.00,,,0.00,WeatherCatV1.15B25,2013-04-17 04:00:00,
2013-04-17 00:01:00,50.4,47.9,30.19,NE,56,1.0,1.0,91,0.00,,,0.00,WeatherCatV1.15B25,2013-04-17 04:01:00,
2013-04-17 00:02:00,50.4,47.9,30.19,ENE,61,2.0,3.0,91,0.00,,,0.00,WeatherCatV1.15B25,2013-04-17 04:02:00,
2013-04-17 00:03:00,50.4,47.9,30.19,ENE,61,1.0,3.0,91,0.00,,,0.00,WeatherCatV1.15B25,2013-04-17 04:03:00,
2013-04-17 00:04:00,50.5,48.0,30.19,ENE,58,0.0,3.0,91,0.00,,,0.00,WeatherCatV1.15B25,2013-04-17 04:04:00,
2013-04-17 00:09:00,50.5,48.0,30.20,ENE,58,1.0,2.0,91,0.00,,,0.00,WeatherCatV1.15B25,2013-04-17 04:09:00,
2013-04-17 00:14:00,50.4,47.9,30.20,ENE,58,0.0,2.0,91,0.00,,,0.00,WeatherCatV1.15B25,2013-04-17 04:14:00,
2013-04-17 00:19:00,50.1,47.6,30.19,ENE,57,0.0,2.0,91,0.00,,,0.00,WeatherCatV1.15B25,2013-04-17 04:19:00,
2013-04-17 00:24:00,49.8,47.3,30.19,NE,51,0.0,2.0,91,0.00,,,0.00,WeatherCatV1.15B25,2013-04-17 04:24:00,
2013-04-17 00:29:00,49.7,47.2,30.20,NW,321,0.0,1.0,91,0.00,,,0.00,WeatherCatV1.15B25,2013-04-17 04:29:00,
2013-04-17 00:34:00,49.5,47.0,30.20,NW,321,0.0,0.0,91,0.00,,,0.00,WeatherCatV1.15B25,2013-04-17 04:34:00,
2013-04-17 00:39:00,49.5,47.3,30.20,NW,324,0.0,0.0,92,0.00,,,0.00,WeatherCatV1.15B25,2013-04-17 04:39:00,
2013-04-17 00:44:00,49.5,47.3,30.19,NNE,21,3.0,3.0,92,0.00,,,0.00,WeatherCatV1.15B25,2013-04-17 04:44:00,
2013-04-17 00:49:00,49.5,47.3,30.21,NNE,22,0.0,0.0,92,0.00,,,0.00,WeatherCatV1.15B25,2013-04-17 04:49:00,
2013-04-17 00:54:00,49.5,47.3,30.21,NNE,22,1.0,1.0,92,0.00,,,0.00,WeatherCatV1.15B25,2013-04-17 04:54:00,
2013-04-17 00:59:00,49.5,47.3,30.21,NE,49,0.0,1.0,92,0.00,,,0.00,WeatherCatV1.15B25,2013-04-17 04:59:00,
2013-04-17 01:04:00,49.4,47.2,30.22,NE,49,0.0,0.0,92,0.00,,,0.00,WeatherCatV1.15B25,2013-04-17 05:04:00,
2013-04-17 01:09:00,49.2,46.7,30.22,NE,49,0.0,0.0,91,0.00,,,0.00,WeatherCatV1.15B25,2013-04-17 05:09:00,
2013-04-17 01:14:00,49.1,46.6,30.22,NE,55,0.0,2.0,91,0.00,,,0.00,WeatherCatV1.15B25,2013-04-17 05:14:00,
2013-04-17 01:19:00,49.1,46.9,30.22,NE,55,0.0,0.0,92,0.00,,,0.00,WeatherCatV1.15B25,2013-04-17 05:19:00,
2013-04-17 01:24:00,48.9,46.7,30.22,NNE,17,1.0,3.0,92,0.00,,,0.00,WeatherCatV1.15B25,2013-04-17 05:24:00,
2013-04-17 01:29:00,48.5,46.0,30.22,NNE,19,0.0,3.0,91,0.00,,,0.00,WeatherCatV1.15B25,2013-04-17 05:29:00,
2013-04-17 01:34:00,48.2,46.0,30.23,NNE,19,0.0,2.0,92,0.00,,,0.00,WeatherCatV1.15B25,2013-04-17 05:34:00,
2013-04-17 01:39:00,47.9,45.4,30.23,NE,44,0.0,3.0,91,0.00,,,0.00,WeatherCatV1.15B25,2013-04-17 05:39:00,
2013-04-17 01:44:00,47.6,45.4,30.23,NE,44,0.0,1.0,92,0.00,,,0.00,WeatherCatV1.15B25,2013-04-17 05:44:00,
2013-04-17 01:49:00,47.3,44.8,30.23,NE,37,2.0,2.0,91,0.00,,,0.00,WeatherCatV1.15B25,2013-04-17 05:49:00,
2013-04-17 01:54:00,47.1,44.9,30.23,NE,35,0.0,0.0,92,0.00,,,0.00,WeatherCatV1.15B25,2013-04-17 05:54:00,
2013-04-17 01:59:00,47.0,44.8,30.24,NNE,15,0.0,0.0,92,0.00,,,0.00,WeatherCatV1.15B25,2013-04-17 05:59:00,
2013-04-17 02:04:00,46.8,44.6,30.24,North,0,0.0,2.0,92,0.00,,,0.00,WeatherCatV1.15B25,2013-04-17 06:04:00,
2013-04-17 02:09:00,46.7,44.5,30.24,North,0,0.0,3.0,92,0.00,,,0.00,WeatherCatV1.15B25,2013-04-17 06:09:00,
2013-04-17 02:14:00,46.6,44.4,30.24,North,0,0.0,0.0,92,0.00,,,0.00,WeatherCatV1.15B25,2013-04-17 06:14:00,
2013-04-17 02:19:00,46.5,44.3,30.24,North,0,0.0,0.0,92,0.00,,,0.00,WeatherCatV1.15B25,2013-04-17 06:19:00,
2013-04-17 02:24:00,46.5,44.3,30.24,North,0,0.0,0.0,92,0.00,,,0.00,WeatherCatV1.15B25,2013-04-17 06:24:00,
2013-04-17 02:29:00,46.4,44.2,30.24,North,0,0.0,0.0,92,0.00,,,0.00,WeatherCatV1.15B25,2013-04-17 06:29:00,
2013-04-17 02:34:00,46.4,44.2,30.24,North,0,0.0,0.0,92,0.00,,,0.00,WeatherCatV1.15B25,2013-04-17 06:34:00,
2013-04-17 02:39:00,46.4,44.2,30.24,North,0,0.0,0.0,92,0.00,,,0.00,WeatherCatV1.15B25,2013-04-17 06:39:00,
2013-04-17 02:44:00,46.4,44.2,30.24,North,0,0.0,0.0,92,0.00,,,0.00,WeatherCatV1.15B25,2013-04-17 06:44:00,
2013-04-17 02:49:00,46.4,44.2,30.24,North,5,0.0,2.0,92,0.00,,,0.00,WeatherCatV1.15B25,2013-04-17 06:49:00,
2013-04-17 02:54:00,46.3,44.1,30.23,North,5,0.0,1.0,92,0.00,,,0.00,WeatherCatV1.15B25,2013-04-17 06:54:00,
2013-04-17 02:59:00,46.1,43.9,30.23,North,0,0.0,0.0,92,0.00,,,0.00,WeatherCatV1.15B25,2013-04-17 06:59:00,
2013-04-17 03:04:00,46.0,43.8,30.24,North,0,1.0,2.0,92,0.00,,,0.00,WeatherCatV1.15B25,2013-04-17 07:04:00,
2013-04-17 03:09:00,45.9,43.7,30.24,NE,56,0.0,2.0,92,0.00,,,0.00,WeatherCatV1.15B25,2013-04-17 07:09:00,
2013-04-17 03:14:00,45.8,43.6,30.25,ENE,72,0.0,1.0,92,0.00,,,0.00,WeatherCatV1.15B25,2013-04-17 07:14:00,
2013-04-17 03:19:00,45.7,43.5,30.26,ENE,73,0.0,0.0,92,0.00,,,0.00,WeatherCatV1.15B25,2013-04-17 07:19:00,
2013-04-17 03:24:00,45.4,43.2,30.25,NNW,336,2.0,2.0,92,0.00,,,0.00,WeatherCatV1.15B25,2013-04-17 07:24:00,
2013-04-17 03:29:00,45.2,43.0,30.25,NNE,30,0.0,1.0,92,0.00,,,0.00,WeatherCatV1.15B25,2013-04-17 07:29:00,
2013-04-17 03:34:00,45.2,43.0,30.25,NNE,19,1.0,3.0,92,0.00,,,0.00,WeatherCatV1.15B25,2013-04-17 07:34:00,
2013-04-17 03:39:00,45.2,43.0,30.26,NE,42,0.0,1.0,92,0.00,,,0.00,WeatherCatV1.15B25,2013-04-17 07:39:00,
2013-04-17 03:44:00,45.1,42.9,30.26,NE,42,0.0,1.0,92,0.00,,,0.00,WeatherCatV1.15B25,2013-04-17 07:44:00,
2013-04-17 03:49:00,45.0,42.8,30.27,NE,42,0.0,1.0,92,0.00,,,0.00,WeatherCatV1.15B25,2013-04-17 07:49:00,
2013-04-17 03:54:00,44.8,42.6,30.27,NE,55,2.0,3.0,92,0.00,,,0.00,WeatherCatV1.15B25,2013-04-17 07:54:00,
2013-04-17 03:59:00,44.6,42.4,30.27,NE,55,1.0,2.0,92,0.00,,,0.00,WeatherCatV1.15B25,2013-04-17 07:59:00,
2013-04-17 04:04:00,44.5,42.3,30.27,ENE,64,2.0,2.0,92,0.00,,,0.00,WeatherCatV1.15B25,2013-04-17 08:04:00,
2013-04-17 04:09:00,44.3,42.1,30.28,North,0,0.0,2.0,92,0.00,,,0.00,WeatherCatV1.15B25,2013-04-17 08:09:00,
2013-04-17 04:14:00,44.3,42.1,30.28,NNW,327,0.0,4.0,92,0.00,,,0.00,WeatherCatV1.15B25,2013-04-17 08:14:00,
2013-04-17 04:19:00,44.2,42.0,30.28,NE,44,0.0,0.0,92,0.00,,,0.00,WeatherCatV1.15B25,2013-04-17 08:19:00,
2013-04-17 04:24:00,44.1,41.9,30.28,NNE,19,0.0,2.0,92,0.00,,,0.00,WeatherCatV1.15B25,2013-04-17 08:24:00,
2013-04-17 04:29:00,44.0,41.8,30.28,NE,34,1.0,3.0,92,0.00,,,0.00,WeatherCatV1.15B25,2013-04-17 08:29:00,
2013-04-17 04:34:00,43.8,41.6,30.29,North,355,0.0,2.0,92,0.00,,,0.00,WeatherCatV1.15B25,2013-04-17 08:34:00,
2013-04-17 04:39:00,43.7,41.5,30.28,NE,36,2.0,4.0,92,0.00,,,0.00,WeatherCatV1.15B25,2013-04-17 08:39:00,
2013-04-17 04:44:00,43.5,41.3,30.27,NE,51,0.0,3.0,92,0.00,,,0.00,WeatherCatV1.15B25,2013-04-17 08:44:00,
2013-04-17 04:49:00,43.5,41.3,30.27,NE,40,0.0,0.0,92,0.00,,,0.00,WeatherCatV1.15B25,2013-04-17 08:49:00,
2013-04-17 04:54:00,43.5,41.3,30.27,NE,55,3.0,3.0,92,0.00,,,0.00,WeatherCatV1.15B25,2013-04-17 08:54:00,
2013-04-17 04:59:00,43.5,41.3,30.26,NE,46,0.0,2.0,92,0.00,,,0.00,WeatherCatV1.15B25,2013-04-17 08:59:00,
2013-04-17 05:04:00,43.5,41.3,30.25,ENE,72,1.0,3.0,92,0.00,,,0.00,WeatherCatV1.15B25,2013-04-17 09:04:00,
2013-04-17 05:09:00,43.5,41.3,30.27,East,84,2.0,3.0,92,0.00,,,0.00,WeatherCatV1.15B25,2013-04-17 09:09:00,
2013-04-17 05:14:00,43.6,41.4,30.28,NNE,30,0.0,2.0,92,0.00,,,0.00,WeatherCatV1.15B25,2013-04-17 09:14:00,
2013-04-17 05:19:00,43.8,41.3,30.29,North,5,1.0,2.0,91,0.00,,,0.00,WeatherCatV1.15B25,2013-04-17 09:19:00,
2013-04-17 05:24:00,44.0,41.5,30.28,NE,56,2.0,3.0,91,0.00,,,0.00,WeatherCatV1.15B25,2013-04-17 09:24:00,
2013-04-17 05:29:00,44.2,41.7,30.29,NE,55,1.0,4.0,91,0.00,,,0.00,WeatherCatV1.15B25,2013-04-17 09:29:00,
2013-04-17 05:34:00,44.4,41.7,30.29,NE,42,0.0,9.0,90,0.00,,,0.00,WeatherCatV1.15B25,2013-04-17 09:34:00,
2013-04-17 05:39:00,44.4,41.7,30.29,NE,56,1.0,10.0,90,0.00,,,0.00,WeatherCatV1.15B25,2013-04-17 09:39:00,
2013-04-17 05:44:00,44.5,41.5,30.29,ENE,57,2.0,6.0,89,0.00,,,0.00,WeatherCatV1.15B25,2013-04-17 09:44:00,
2013-04-17 05:49:00,44.3,41.0,30.29,NE,36,5.0,5.0,88,0.00,,,0.00,WeatherCatV1.15B25,2013-04-17 09:49:00,
2013-04-17 05:54:00,44.2,40.9,30.29,North,5,2.0,5.0,88,0.00,,,0.00,WeatherCatV1.15B25,2013-04-17 09:54:00,
2013-04-17 05:59:00,44.1,40.5,30.29,NE,45,0.0,4.0,87,0.00,,,0.00,WeatherCatV1.15B25,2013-04-17 09:59:00,
2013-04-17 06:04:00,43.9,40.0,30.29,NNE,18,3.0,3.0,86,0.00,,,0.00,WeatherCatV1.15B25,2013-04-17 10:04:00,
2013-04-17 06:09:00,43.8,39.6,30.29,NNE,13,0.0,7.0,85,0.00,,,0.00,WeatherCatV1.15B25,2013-04-17 10:09:00,
2013-04-17 06:14:00,43.6,39.1,30.30,NE,42,0.0,5.0,84,0.00,,,0.00,WeatherCatV1.15B25,2013-04-17 10:14:00,
2013-04-17 06:19:00,43.4,38.6,30.30,ENE,65,4.0,4.0,83,0.00,,,0.00,WeatherCatV1.15B25,2013-04-17 10:19:00,
2013-04-17 06:24:00,43.3,38.2,30.30,NNE,23,6.0,6.0,82,0.00,,,0.00,WeatherCatV1.15B25,2013-04-17 10:24:00,
2013-04-17 06:29:00,43.3,37.9,30.30,NNE,26,0.0,7.0,81,0.00,,,0.00,WeatherCatV1.15B25,2013-04-17 10:29:00,
2013-04-17 06:34:00,43.2,37.5,30.30,NNW,335,5.0,7.0,80,0.00,,,0.00,WeatherCatV1.15B25,2013-04-17 10:34:00,
2013-04-17 06:39:00,43.1,37.0,30.31,NE,41,0.0,6.0,79,0.00,,,0.00,WeatherCatV1.15B25,2013-04-17 10:39:00,
2013-04-17 06:44:00,43.2,37.1,30.31,NNW,344,8.0,8.0,79,0.00,,,0.00,WeatherCatV1.15B25,2013-04-17 10:44:00,
2013-04-17 06:49:00,43.1,36.7,30.31,East,84,0.0,7.0,78,0.00,,,0.00,WeatherCatV1.15B25,2013-04-17 10:49:00,
2013-04-17 06:54:00,43.1,36.7,30.32,NE,51,2.0,3.0,78,0.00,,,0.00,WeatherCatV1.15B25,2013-04-17 10:54:00,
2013-04-17 06:59:00,43.1,36.7,30.32,NE,40,0.0,4.0,78,0.00,,,0.00,WeatherCatV1.15B25,2013-04-17 10:59:00,
2013-04-17 07:04:00,43.0,36.6,30.32,NNE,30,0.0,3.0,78,0.00,,,0.00,WeatherCatV1.15B25,2013-04-17 11:04:00,
2013-04-17 07:09:00,42.8,36.7,30.31,ENE,58,0.0,2.0,79,0.00,,,0.00,WeatherCatV1.15B25,2013-04-17 11:09:00,
2013-04-17 07:14:00,42.7,36.6,30.32,NE,46,3.0,3.0,79,0.00,,,0.00,WeatherCatV1.15B25,2013-04-17 11:14:00,
2013-04-17 07:19:00,42.8,36.7,30.32,East,91,0.0,2.0,79,0.00,,,0.00,WeatherCatV1.15B25,2013-04-17 11:19:00,
2013-04-17 07:24:00,42.8,36.7,30.32,ENE,74,2.0,5.0,79,0.00,,,0.00,WeatherCatV1.15B25,2013-04-17 11:24:00,
2013-04-17 07:29:00,42.8,36.4,30.32,NNE,27,5.0,6.0,78,0.00,,,0.00,WeatherCatV1.15B25,2013-04-17 11:29:00,
2013-04-17 07:34:00,42.8,36.4,30.32,NNE,19,0.0,1.0,78,0.00,,,0.00,WeatherCatV1.15B25,2013-04-17 11:34:00,
2013-04-17 07:39:00,42.8,36.4,30.32,NNE,32,5.0,5.0,78,0.00,,,0.00,WeatherCatV1.15B25,2013-04-17 11:39:00,
2013-04-17 07:44:00,42.8,36.1,30.32,ENE,75,0.0,4.0,77,0.00,,,0.00,WeatherCatV1.15B25,2013-04-17 11:44:00,
2013-04-17 07:49:00,42.8,36.1,30.33,NNW,336,2.0,5.0,77,0.00,,,0.00,WeatherCatV1.15B25,2013-04-17 11:49:00,
2013-04-17 07:54:00,42.8,35.8,30.33,NNW,345,1.0,6.0,76,0.00,,,0.00,WeatherCatV1.15B25,2013-04-17 11:54:00,
2013-04-17 07:59:00,42.8,35.8,30.33,NE,40,3.0,5.0,76,0.00,,,0.00,WeatherCatV1.15B25,2013-04-17 11:59:00,
2013-04-17 08:04:00,42.8,35.8,30.33,NE,42,2.0,5.0,76,0.00,,,0.00,WeatherCatV1.15B25,2013-04-17 12:04:00,
2013-04-17 08:09:00,43.0,36.0,30.33,ENE,78,6.0,6.0,76,0.00,,,0.00,WeatherCatV1.15B25,2013-04-17 12:09:00,
2013-04-17 08:14:00,43.4,36.3,30.33,NNE,24,0.0,6.0,76,0.00,,,0.00,WeatherCatV1.15B25,2013-04-17 12:14:00,
2013-04-17 08:19:00,43.6,36.2,30.33,ENE,61,0.0,7.0,75,0.00,,,0.00,WeatherCatV1.15B25,2013-04-17 12:19:00,
2013-04-17 08:24:00,43.6,36.2,30.33,ENE,59,0.0,4.0,75,0.00,,,0.00,WeatherCatV1.15B25,2013-04-17 12:24:00,
2013-04-17 08:29:00,43.9,36.5,30.33,NNE,25,1.0,10.0,75,0.00,,,0.00,WeatherCatV1.15B25,2013-04-17 12:29:00,
2013-04-17 08:34:00,44.0,36.3,30.33,NNE,28,4.0,9.0,74,0.00,,,0.00,WeatherCatV1.15B25,2013-04-17 12:34:00,
2013-04-17 08:39:00,44.1,36.0,30.33,North,351,5.0,6.0,73,0.00,,,0.00,WeatherCatV1.15B25,2013-04-17 12:39:00,
2013-04-17 08:44:00,44.3,36.2,30.33,East,86,1.0,5.0,73,0.00,,,0.00,WeatherCatV1.15B25,2013-04-17 12:44:00,
2013-04-17 08:49:00,44.4,35.6,30.32,ENE,75,0.0,8.0,71,0.00,,,0.00,WeatherCatV1.15B25,2013-04-17 12:49:00,
2013-04-17 08:54:00,44.7,35.9,30.32,NE,40,0.0,6.0,71,0.00,,,0.00,WeatherCatV1.15B25,2013-04-17 12:54:00,
2013-04-17 08:59:00,44.9,35.7,30.32,NNW,341,9.0,9.0,70,0.00,,,0.00,WeatherCatV1.15B25,2013-04-17 12:59:00,
2013-04-17 09:04:00,44.7,35.2,30.32,East,99,5.0,10.0,69,0.00,,,0.00,WeatherCatV1.15B25,2013-04-17 13:04:00,
2013-04-17 09:09:00,44.7,35.2,30.32,ENE,64,0.0,7.0,69,0.00,,,0.00,WeatherCatV1.15B25,2013-04-17 13:09:00,
2013-04-17 09:14:00,45.0,35.5,30.32,NE,38,0.0,8.0,69,0.00,,,0.00,WeatherCatV1.15B25,2013-04-17 13:14:00,
2013-04-17 09:19:00,45.3,35.4,30.31,North,5,0.0,5.0,68,0.00,,,0.00,WeatherCatV1.15B25,2013-04-17 13:19:00,
2013-04-17 09:24:00,45.8,35.5,30.32,NE,40,0.0,7.0,67,0.00,,,0.00,WeatherCatV1.15B25,2013-04-17 13:24:00,
2013-04-17 09:29:00,46.1,35.8,30.32,NNE,19,4.0,5.0,67,0.00,,,0.00,WeatherCatV1.15B25,2013-04-17 13:29:00,
2013-04-17 09:34:00,46.2,35.5,30.32,NNW,346,5.0,6.0,66,0.00,,,0.00,WeatherCatV1.15B25,2013-04-17 13:34:00,
2013-04-17 09:39:00,46.3,35.6,30.32,NE,48,1.0,7.0,66,0.00,,,0.00,WeatherCatV1.15B25,2013-04-17 13:39:00,
2013-04-17 09:44:00,46.3,36.0,30.32,NNE,12,2.0,5.0,67,0.00,,,0.00,WeatherCatV1.15B25,2013-04-17 13:44:00,
2013-04-17 09:49:00,46.4,36.4,30.32,East,90,2.0,9.0,68,0.00,,,0.00,WeatherCatV1.15B25,2013-04-17 13:49:00,
2013-04-17 09:54:00,46.2,36.2,30.32,NE,46,1.0,2.0,68,0.00,,,0.00,WeatherCatV1.15B25,2013-04-17 13:54:00,
2013-04-17 09:59:00,46.3,36.3,30.32,NE,51,0.0,6.0,68,0.00,,,0.00,WeatherCatV1.15B25,2013-04-17 13:59:00,
2013-04-17 10:04:00,46.5,36.5,30.32,NNW,338,5.0,6.0,68,0.00,,,0.00,WeatherCatV1.15B25,2013-04-17 14:04:00,
2013-04-17 10:09:00,46.5,36.1,30.32,NW,321,0.0,8.0,67,0.00,,,0.00,WeatherCatV1.15B25,2013-04-17 14:09:00,
2013-04-17 10:14:00,46.4,36.4,30.33,ENE,61,1.0,4.0,68,0.00,,,0.00,WeatherCatV1.15B25,2013-04-17 14:14:00,
2013-04-17 10:19:00,46.4,36.4,30.32,North,10,4.0,5.0,68,0.00,,,0.00,WeatherCatV1.15B25,2013-04-17 14:19:00,
2013-04-17 10:24:00,46.3,36.3,30.32,ENE,68,3.0,9.0,68,0.00,,,0.00,WeatherCatV1.15B25,2013-04-17 14:24:00,
2013-04-17 10:29:00,46.1,36.1,30.33,East,91,1.0,9.0,68,0.00,,,0.00,WeatherCatV1.15B25,2013-04-17 14:29:00,
2013-04-17 10:34:00,46.0,36.4,30.33,NNE,28,4.0,9.0,69,0.00,,,0.00,WeatherCatV1.15B25,2013-04-17 14:34:00,
2013-04-17 10:39:00,46.2,37.0,30.32,ENE,60,0.0,5.0,70,0.00,,,0.00,WeatherCatV1.15B25,2013-04-17 14:39:00,
2013-04-17 10:44:00,47.1,37.8,30.32,NE,51,3.0,4.0,70,0.00,,,0.00,WeatherCatV1.15B25,2013-04-17 14:44:00,
2013-04-17 10:49:00,47.0,37.4,30.32,NNE,30,5.0,5.0,69,0.00,,,0.00,WeatherCatV1.15B25,2013-04-17 14:49:00,
2013-04-17 10:54:00,47.5,37.8,30.32,NE,55,2.0,4.0,69,0.00,,,0.00,WeatherCatV1.15B25,2013-04-17 14:54:00,
2013-04-17 10:59:00,48.2,37.8,30.33,NNE,29,1.0,9.0,67,0.00,,,0.00,WeatherCatV1.15B25,2013-04-17 14:59:00,
2013-04-17 11:04:00,48.2,37.0,30.32,NNW,335,6.0,7.0,65,0.00,,,0.00,WeatherCatV1.15B25,2013-04-17 15:04:00,
2013-04-17 11:09:00,47.7,36.5,30.32,ENE,69,5.0,12.0,65,0.00,,,0.00,WeatherCatV1.15B25,2013-04-17 15:09:00,
2013-04-17 11:14:00,48.3,37.9,30.32,NE,40,0.0,4.0,67,0.00,,,0.00,WeatherCatV1.15B25,2013-04-17 15:14:00,
2013-04-17 11:19:00,48.3,36.7,30.33,East,91,2.0,7.0,64,0.00,,,0.00,WeatherCatV1.15B25,2013-04-17 15:19:00,
2013-04-17 11:24:00,49.1,38.2,30.33,NNE,16,3.0,4.0,66,0.00,,,0.00,WeatherCatV1.15B25,2013-04-17 15:24:00,
2013-04-17 11:29:00,48.8,36.8,30.33,ENE,66,0.0,5.0,63,0.00,,,0.00,WeatherCatV1.15B25,2013-04-17 15:29:00,
2013-04-17 11:35:00,48.6,37.0,30.32,NE,53,2.0,7.0,64,0.00,,,0.00,WeatherCatV1.15B25,2013-04-17 15:35:00,
2013-04-17 11:40:00,49.0,37.8,30.32,NNE,15,6.0,6.0,65,0.00,,,0.00,WeatherCatV1.15B25,2013-04-17 15:40:00,
2013-04-17 11:45:00,48.5,36.9,30.32,North,0,2.0,6.0,64,0.00,,,0.00,WeatherCatV1.15B25,2013-04-17 15:45:00,
2013-04-17 11:50:00,48.8,37.2,30.32,NE,43,1.0,10.0,64,0.00,,,0.00,WeatherCatV1.15B25,2013-04-17 15:50:00,
2013-04-17 11:55:00,48.8,37.2,30.32,NE,53,0.0,11.0,64,0.00,,,0.00,WeatherCatV1.15B25,2013-04-17 15:55:00,
2013-04-17 12:00:00,48.8,37.2,30.31,North,11,1.0,7.0,64,0.00,,,0.00,WeatherCatV1.15B25,2013-04-17 16:00:00,
2013-04-17 12:05:00,48.8,37.2,30.31,East,80,3.0,9.0,64,0.00,,,0.00,WeatherCatV1.15B25,2013-04-17 16:05:00,
2013-04-17 12:10:00,48.9,36.9,30.31,North,5,7.0,7.0,63,0.00,,,0.00,WeatherCatV1.15B25,2013-04-17 16:10:00,
2013-04-17 12:15:00,49.1,37.5,30.30,NNW,345,1.0,7.0,64,0.00,,,0.00,WeatherCatV1.15B25,2013-04-17 16:15:00,
2013-04-17 12:20:00,49.1,37.1,30.29,NNE,18,0.0,8.0,63,0.00,,,0.00,WeatherCatV1.15B25,2013-04-17 16:20:00,
2013-04-17 12:25:00,48.8,36.0,30.29,ENE,63,0.0,13.0,61,0.00,,,0.00,WeatherCatV1.15B25,2013-04-17 16:25:00,
2013-04-17 12:30:00,49.3,37.2,30.29,North,11,0.0,5.0,63,0.00,,,0.00,WeatherCatV1.15B25,2013-04-17 16:30:00,
2013-04-17 12:35:00,48.6,36.6,30.29,NNE,19,0.0,7.0,63,0.00,,,0.00,WeatherCatV1.15B25,2013-04-17 16:35:00,
2013-04-17 12:40:00,48.8,37.6,30.29,ENE,65,2.0,5.0,65,0.00,,,0.00,WeatherCatV1.15B25,2013-04-17 16:40:00,
2013-04-17 12:45:00,49.0,37.4,30.29,NNE,15,0.0,6.0,64,0.00,,,0.00,WeatherCatV1.15B25,2013-04-17 16:45:00,
2013-04-17 12:50:00,48.9,37.7,30.29,ENE,57,4.0,6.0,65,0.00,,,0.00,WeatherCatV1.15B25,2013-04-17 16:50:00,
2013-04-17 12:55:00,48.9,37.3,30.29,ENE,74,4.0,8.0,64,0.00,,,0.00,WeatherCatV1.15B25,2013-04-17 16:55:00,
2013-04-17 13:00:00,49.2,37.1,30.29,North,0,0.0,10.0,63,0.00,,,0.00,WeatherCatV1.15B25,2013-04-17 17:00:00,
2013-04-17 13:05:00,49.4,37.3,30.29,NW,322,2.0,6.0,63,0.00,,,0.00,WeatherCatV1.15B25,2013-04-17 17:05:00,
2013-04-17 13:10:00,50.1,38.8,30.29,ENE,72,1.0,4.0,65,0.00,,,0.00,WeatherCatV1.15B25,2013-04-17 17:10:00,
2013-04-17 13:15:00,50.7,37.3,30.29,East,82,3.0,6.0,60,0.00,,,0.00,WeatherCatV1.15B25,2013-04-17 17:15:00,
2013-04-17 13:20:00,50.4,37.5,30.30,ENE,67,4.0,10.0,61,0.00,,,0.00,WeatherCatV1.15B25,2013-04-17 17:20:00,
2013-04-17 13:25:00,50.1,37.6,30.30,North,11,4.0,7.0,62,0.00,,,0.00,WeatherCatV1.15B25,2013-04-17 17:25:00,
2013-04-17 13:30:00,49.6,37.9,30.30,WNW,295,3.0,5.0,64,0.00,,,0.00,WeatherCatV1.15B25,2013-04-17 17:30:00,
2013-04-17 13:35:00,49.6,37.5,30.30,NE,50,0.0,1.0,63,0.00,,,0.00,WeatherCatV1.15B25,2013-04-17 17:35:00,
2013-04-17 13:40:00,49.4,37.3,30.30,WNW,303,1.0,6.0,63,0.00,,,0.00,WeatherCatV1.15B25,2013-04-17 17:40:00,
2013-04-17 13:45:00,48.9,37.3,30.30,NE,49,5.0,10.0,64,0.00,,,0.00,WeatherCatV1.15B25,2013-04-17 17:45:00,
2013-04-17 13:50:00,48.0,36.4,30.30,NNE,29,3.0,9.0,64,0.00,,,0.00,WeatherCatV1.15B25,2013-04-17 17:50:00,
2013-04-17 13:55:00,47.9,36.3,30.29,NE,55,6.0,7.0,64,0.00,,,0.00,WeatherCatV1.15B25,2013-04-17 17:55:00,
2013-04-17 14:00:00,48.2,37.0,30.29,ENE,71,0.0,9.0,65,0.00,,,0.00,WeatherCatV1.15B25,2013-04-17 18:00:00,
2013-04-17 14:05:00,49.4,38.9,30.29,NE,56,4.0,4.0,67,0.00,,,0.00,WeatherCatV1.15B25,2013-04-17 18:05:00,
2013-04-17 14:10:00,50.0,37.9,30.29,NNW,331,2.0,5.0,63,0.00,,,0.00,WeatherCatV1.15B25,2013-04-17 18:10:00,
2013-04-17 14:15:00,49.5,37.0,30.30,NE,49,1.0,10.0,62,0.00,,,0.00,WeatherCatV1.15B25,2013-04-17 18:15:00,
2013-04-17 14:20:00,49.1,37.8,30.29,NNW,346,5.0,8.0,65,0.00,,,0.00,WeatherCatV1.15B25,2013-04-17 18:20:00,
2013-04-17 14:25:00,49.8,37.7,30.29,NNW,330,0.0,6.0,63,0.00,,,0.00,WeatherCatV1.15B25,2013-04-17 18:25:00,
2013-04-17 14:30:00,49.5,37.4,30.29,North,5,5.0,8.0,63,0.00,,,0.00,WeatherCatV1.15B25,2013-04-17 18:30:00,
2013-04-17 14:35:00,48.8,37.2,30.29,North,349,0.0,12.0,64,0.00,,,0.00,WeatherCatV1.15B25,2013-04-17 18:35:00,
2013-04-17 14:40:00,49.4,38.1,30.29,NW,322,6.0,6.0,65,0.00,,,0.00,WeatherCatV1.15B25,2013-04-17 18:40:00,
2013-04-17 14:45:00,49.1,37.1,30.29,ENE,75,0.0,11.0,63,0.00,,,0.00,WeatherCatV1.15B25,2013-04-17 18:45:00,
2013-04-17 14:50:00,49.0,36.6,30.29,NE,53,5.0,9.0,62,0.00,,,0.00,WeatherCatV1.15B25,2013-04-17 18:50:00,
2013-04-17 14:55:00,49.2,36.7,30.29,ENE,73,4.0,9.0,62,0.00,,,0.00,WeatherCatV1.15B25,2013-04-17 18:55:00,
2013-04-17 15:00:00,48.8,37.6,30.28,NNW,344,4.0,6.0,65,0.00,,,0.00,WeatherCatV1.15B25,2013-04-17 19:00:00,
2013-04-17 15:06:00,48.4,35.6,30.28,ENE,67,0.0,8.0,61,0.00,,,0.00,WeatherCatV1.15B25,2013-04-17 19:06:00,
2013-04-17 15:11:00,48.6,35.8,30.27,East,89,2.0,11.0,61,0.00,,,0.00,WeatherCatV1.15B25,2013-04-17 19:11:00,
2013-04-17 15:16:00,48.8,36.4,30.27,NNE,28,6.0,7.0,62,0.00,,,0.00,WeatherCatV1.15B25,2013-04-17 19:16:00,
2013-04-17 15:22:00,49.1,35.8,30.27,NNE,32,5.0,9.0,60,0.00,,,0.00,WeatherCatV1.15B25,2013-04-17 19:22:00,
2013-04-17 15:27:00,49.3,36.0,30.27,NW,306,3.0,3.0,60,0.00,,,0.00,WeatherCatV1.15B25,2013-04-17 19:27:00,
2013-04-17 15:32:00,49.2,35.5,30.26,NNE,33,4.0,7.0,59,0.00,,,0.00,WeatherCatV1.15B25,2013-04-17 19:32:00,
2013-04-17 15:37:00,49.1,34.5,30.26,NE,44,3.0,11.0,57,0.00,,,0.00,WeatherCatV1.15B25,2013-04-17 19:37:00,
2013-04-17 15:42:00,49.2,34.6,30.26,NE,45,3.0,6.0,57,0.00,,,0.00,WeatherCatV1.15B25,2013-04-17 19:42:00,
2013-04-17 15:47:00,49.6,34.1,30.26,North,5,6.0,8.0,55,0.00,,,0.00,WeatherCatV1.15B25,2013-04-17 19:47:00,
2013-04-17 15:52:00,49.7,34.2,30.26,NW,314,2.0,7.0,55,0.00,,,0.00,WeatherCatV1.15B25,2013-04-17 19:52:00,
2013-04-17 15:57:00,49.7,33.7,30.25,ENE,74,3.0,7.0,54,0.00,,,0.00,WeatherCatV1.15B25,2013-04-17 19:57:00,
2013-04-17 16:02:00,49.7,33.3,30.25,ENE,72,3.0,10.0,53,0.00,,,0.00,WeatherCatV1.15B25,2013-04-17 20:02:00,
2013-04-17 16:08:00,50.1,34.1,30.24,ENE,59,0.0,4.0,54,0.00,,,0.00,WeatherCatV1.15B25,2013-04-17 20:08:00,
2013-04-17 16:13:00,50.7,33.2,30.24,ENE,68,6.0,10.0,51,0.00,,,0.00,WeatherCatV1.15B25,2013-04-17 20:13:00,
2013-04-17 16:18:00,50.9,32.4,30.24,ENE,69,4.0,7.0,49,0.00,,,0.00,WeatherCatV1.15B25,2013-04-17 20:18:00,
2013-04-17 16:23:00,50.7,32.7,30.24,ESE,103,0.0,7.0,50,0.00,,,0.00,WeatherCatV1.15B25,2013-04-17 20:23:00,
2013-04-17 16:28:00,50.9,32.9,30.23,NE,55,8.0,8.0,50,0.00,,,0.00,WeatherCatV1.15B25,2013-04-17 20:28:00,
2013-04-17 16:33:00,51.1,32.1,30.24,North,351,3.0,7.0,48,0.00,,,0.00,WeatherCatV1.15B25,2013-04-17 20:33:00,
2013-04-17 16:38:00,50.7,30.1,30.24,North,10,3.0,6.0,45,0.00,,,0.00,WeatherCatV1.15B25,2013-04-17 20:38:00,
2013-04-17 16:43:00,50.9,31.4,30.25,ENE,75,3.0,5.0,47,0.00,,,0.00,WeatherCatV1.15B25,2013-04-17 20:43:00,
2013-04-17 16:48:00,50.9,30.3,30.24,NNW,336,2.0,9.0,45,0.00,,,0.00,WeatherCatV1.15B25,2013-04-17 20:48:00,
2013-04-17 16:53:00,50.7,30.7,30.23,East,80,2.0,5.0,46,0.00,,,0.00,WeatherCatV1.15B25,2013-04-17 20:53:00,
2013-04-17 16:58:00,50.6,29.5,30.23,NNE,27,3.0,7.0,44,0.00,,,0.00,WeatherCatV1.15B25,2013-04-17 20:58:00,
2013-04-17 17:03:00,50.6,29.5,30.23,North,0,5.0,10.0,44,0.00,,,0.00,WeatherCatV1.15B25,2013-04-17 21:03:00,
2013-04-17 17:08:00,50.3,29.2,30.23,West,279,3.0,5.0,44,0.00,,,0.00,WeatherCatV1.15B25,2013-04-17 21:08:00,
2013-04-17 17:13:00,50.4,28.8,30.23,NE,52,10.0,10.0,43,0.00,,,0.00,WeatherCatV1.15B25,2013-04-17 21:13:00,
2013-04-17 17:18:00,50.4,28.8,30.23,NE,53,0.0,6.0,43,0.00,,,0.00,WeatherCatV1.15B25,2013-04-17 21:18:00,
2013-04-17 17:23:00,50.4,27.6,30.23,NNW,333,2.0,8.0,41,0.00,,,0.00,WeatherCatV1.15B25,2013-04-17 21:23:00,
2013-04-17 17:28:00,50.4,27.6,30.23,East,82,2.0,9.0,41,0.00,,,0.00,WeatherCatV1.15B25,2013-04-17 21:28:00,
2013-04-17 17:33:00,50.0,27.2,30.23,North,5,7.0,12.0,41,0.00,,,0.00,WeatherCatV1.15B25,2013-04-17 21:33:00,
2013-04-17 17:38:00,49.9,29.4,30.24,NNW,337,7.0,7.0,45,0.00,,,0.00,WeatherCatV1.15B25,2013-04-17 21:38:00,
2013-04-17 17:43:00,50.0,29.5,30.23,ENE,67,0.0,9.0,45,0.00,,,0.00,WeatherCatV1.15B25,2013-04-17 21:43:00,
2013-04-17 17:48:00,49.8,29.3,30.23,ENE,61,0.0,7.0,45,0.00,,,0.00,WeatherCatV1.15B25,2013-04-17 21:48:00,
2013-04-17 17:53:00,49.4,29.5,30.22,NNE,27,6.0,6.0,46,0.00,,,0.00,WeatherCatV1.15B25,2013-04-17 21:53:00,
2013-04-17 17:58:00,49.2,28.8,30.22,ENE,74,2.0,6.0,45,0.00,,,0.00,WeatherCatV1.15B25,2013-04-17 21:58:00,
2013-04-17 18:03:00,49.3,28.9,30.22,ENE,73,0.0,5.0,45,0.00,,,0.00,WeatherCatV1.15B25,2013-04-17 22:03:00,
2013-04-17 18:08:00,49.4,28.4,30.22,ENE,69,0.0,7.0,44,0.00,,,0.00,WeatherCatV1.15B25,2013-04-17 22:08:00,
2013-04-17 18:13:00,49.7,28.7,30.22,ENE,74,4.0,7.0,44,0.00,,,0.00,WeatherCatV1.15B25,2013-04-17 22:13:00,
2013-04-17 18:18:00,49.9,27.7,30.22,ENE,78,0.0,7.0,42,0.00,,,0.00,WeatherCatV1.15B25,2013-04-17 22:18:00,
2013-04-17 18:23:00,50.1,27.9,30.22,NE,40,5.0,11.0,42,0.00,,,0.00,WeatherCatV1.15B25,2013-04-17 22:23:00,
2013-04-17 18:28:00,50.0,27.8,30.21,NNE,23,6.0,10.0,42,0.00,,,0.00,WeatherCatV1.15B25,2013-04-17 22:28:00,
2013-04-17 18:33:00,49.8,27.6,30.21,ENE,69,5.0,9.0,42,0.00,,,0.00,WeatherCatV1.15B25,2013-04-17 22:33:00,
2013-04-17 18:38:00,49.4,29.5,30.21,NW,323,0.0,1.0,46,0.00,,,0.00,WeatherCatV1.15B25,2013-04-17 22:38:00,
2013-04-17 18:43:00,49.1,30.3,30.21,NNE,30,0.0,6.0,48,0.00,,,0.00,WeatherCatV1.15B25,2013-04-17 22:43:00,
2013-04-17 18:48:00,48.9,31.6,30.20,NNE,26,2.0,7.0,51,0.00,,,0.00,WeatherCatV1.15B25,2013-04-17 22:48:00,
2013-04-17 18:53:00,48.8,32.4,30.19,ENE,69,2.0,6.0,53,0.00,,,0.00,WeatherCatV1.15B25,2013-04-17 22:53:00,
2013-04-17 18:58:00,48.8,32.9,30.19,East,99,4.0,6.0,54,0.00,,,0.00,WeatherCatV1.15B25,2013-04-17 22:58:00,
2013-04-17 19:03:00,48.9,33.5,30.18,ENE,63,4.0,6.0,55,0.00,,,0.00,WeatherCatV1.15B25,2013-04-17 23:03:00,
2013-04-17 19:08:00,49.0,33.5,30.17,NE,42,4.0,9.0,55,0.00,,,0.00,WeatherCatV1.15B25,2013-04-17 23:08:00,
2013-04-17 19:13:00,49.2,33.7,30.17,NE,42,3.0,11.0,55,0.00,,,0.00,WeatherCatV1.15B25,2013-04-17 23:13:00,
2013-04-17 19:18:00,49.5,34.0,30.16,East,100,0.0,7.0,55,0.00,,,0.00,WeatherCatV1.15B25,2013-04-17 23:18:00,
2013-04-17 19:23:00,49.7,34.2,30.16,NE,40,2.0,3.0,55,0.00,,,0.00,WeatherCatV1.15B25,2013-04-17 23:23:00,
2013-04-17 19:28:00,50.0,34.0,30.15,ESE,107,2.0,10.0,54,0.00,,,0.00,WeatherCatV1.15B25,2013-04-17 23:28:00,
2013-04-17 19:33:00,50.3,34.3,30.15,ENE,57,0.0,7.0,54,0.00,,,0.00,WeatherCatV1.15B25,2013-04-17 23:33:00,
2013-04-17 19:38:00,50.5,34.5,30.15,ENE,63,1.0,6.0,54,0.00,,,0.00,WeatherCatV1.15B25,2013-04-17 23:38:00,
2013-04-17 19:43:00,50.8,34.3,30.15,ENE,71,1.0,12.0,53,0.00,,,0.00,WeatherCatV1.15B25,2013-04-17 23:43:00,
2013-04-17 19:48:00,51.0,34.5,30.15,NE,39,3.0,7.0,53,0.00,,,0.00,WeatherCatV1.15B25,2013-04-17 23:48:00,
2013-04-17 19:53:00,51.2,34.7,30.15,NE,36,2.0,4.0,53,0.00,,,0.00,WeatherCatV1.15B25,2013-04-17 23:53:00,
2013-04-17 19:58:00,51.3,34.8,30.15,East,99,2.0,6.0,53,0.00,,,0.00,WeatherCatV1.15B25,2013-04-17 23:58:00,
2013-04-17 20:03:00,51.3,35.2,30.15,ENE,60,2.0,2.0,54,0.00,,,0.00,WeatherCatV1.15B25,2013-04-18 00:03:00,
2013-04-17 20:08:00,51.4,34.8,30.15,NNE,16,0.0,4.0,53,0.00,,,0.00,WeatherCatV1.15B25,2013-04-18 00:08:00,
2013-04-17 20:13:00,51.5,34.9,30.15,NNE,28,1.0,5.0,53,0.00,,,0.00,WeatherCatV1.15B25,2013-04-18 00:13:00,
2013-04-17 20:18:00,51.4,35.3,30.15,NE,37,0.0,2.0,54,0.00,,,0.00,WeatherCatV1.15B25,2013-04-18 00:18:00,
2013-04-17 20:23:00,51.4,35.3,30.15,NE,40,0.0,0.0,54,0.00,,,0.00,WeatherCatV1.15B25,2013-04-18 00:23:00,
2013-04-17 20:28:00,51.5,35.4,30.15,North,10,0.0,3.0,54,0.00,,,0.00,WeatherCatV1.15B25,2013-04-18 00:28:00,
2013-04-17 20:33:00,51.6,36.0,30.15,NE,42,1.0,3.0,55,0.00,,,0.00,WeatherCatV1.15B25,2013-04-18 00:33:00,
2013-04-17 20:38:00,51.6,36.4,30.15,NNE,29,0.0,3.0,56,0.00,,,0.00,WeatherCatV1.15B25,2013-04-18 00:38:00,
2013-04-17 20:43:00,51.3,36.6,30.14,NE,42,0.0,0.0,57,0.00,,,0.00,WeatherCatV1.15B25,2013-04-18 00:43:00,
2013-04-17 20:48:00,51.1,36.8,30.14,NNE,25,1.0,2.0,58,0.00,,,0.00,WeatherCatV1.15B25,2013-04-18 00:48:00,
2013-04-17 20:53:00,51.0,37.2,30.14,NE,37,0.0,1.0,59,0.00,,,0.00,WeatherCatV1.15B25,2013-04-18 00:53:00,
2013-04-17 20:58:00,50.9,37.1,30.14,NE,49,0.0,3.0,59,0.00,,,0.00,WeatherCatV1.15B25,2013-04-18 00:58:00,
2013-04-17 21:03:00,51.0,37.2,30.14,NE,35,0.0,0.0,59,0.00,,,0.00,WeatherCatV1.15B25,2013-04-18 01:03:00,
2013-04-17 21:08:00,51.0,37.6,30.13,NE,36,0.0,2.0,60,0.00,,,0.00,WeatherCatV1.15B25,2013-04-18 01:08:00,
2013-04-17 21:13:00,50.9,37.5,30.13,NE,36,0.0,0.0,60,0.00,,,0.00,WeatherCatV1.15B25,2013-04-18 01:13:00,
2013-04-17 21:18:00,50.9,37.9,30.12,NNE,18,0.0,3.0,61,0.00,,,0.00,WeatherCatV1.15B25,2013-04-18 01:18:00,
2013-04-17 21:23:00,50.8,38.3,30.12,NNE,18,0.0,1.0,62,0.00,,,0.00,WeatherCatV1.15B25,2013-04-18 01:23:00,
2013-04-17 21:28:00,50.8,38.3,30.12,NNE,18,0.0,0.0,62,0.00,,,0.00,WeatherCatV1.15B25,2013-04-18 01:28:00,
2013-04-17 21:33:00,50.8,38.3,30.11,NNE,18,0.0,0.0,62,0.00,,,0.00,WeatherCatV1.15B25,2013-04-18 01:33:00,
2013-04-17 21:38:00,50.8,38.7,30.10,NNE,18,0.0,0.0,63,0.00,,,0.00,WeatherCatV1.15B25,2013-04-18 01:38:00,
2013-04-17 21:43:00,50.7,38.6,30.10,NNE,18,0.0,0.0,63,0.00,,,0.00,WeatherCatV1.15B25,2013-04-18 01:43:00,
2013-04-17 21:48:00,50.7,38.6,30.11,NNE,18,0.0,0.0,63,0.00,,,0.00,WeatherCatV1.15B25,2013-04-18 01:48:00,
2013-04-17 21:53:00,50.8,38.3,30.11,NNE,22,0.0,2.0,62,0.00,,,0.00,WeatherCatV1.15B25,2013-04-18 01:53:00,
2013-04-17 21:58:00,51.0,38.4,30.11,NNE,23,0.0,0.0,62,0.00,,,0.00,WeatherCatV1.15B25,2013-04-18 01:58:00,
2013-04-17 22:03:00,51.1,38.5,30.11,NNE,23,0.0,0.0,62,0.00,,,0.00,WeatherCatV1.15B25,2013-04-18 02:03:00,
2013-04-17 22:09:00,51.2,38.6,30.11,NNE,23,0.0,0.0,62,0.00,,,0.00,WeatherCatV1.15B25,2013-04-18 02:09:00,
2013-04-17 22:14:00,51.1,38.9,30.10,NNE,22,0.0,0.0,63,0.00,,,0.00,WeatherCatV1.15B25,2013-04-18 02:14:00,
2013-04-17 22:19:00,51.1,38.9,30.10,NNE,23,0.0,0.0,63,0.00,,,0.00,WeatherCatV1.15B25,2013-04-18 02:19:00,
2013-04-17 22:24:00,51.1,39.4,30.09,NNE,23,0.0,0.0,64,0.00,,,0.00,WeatherCatV1.15B25,2013-04-18 02:24:00,
2013-04-17 22:29:00,51.0,39.7,30.08,NNE,22,0.0,0.0,65,0.00,,,0.00,WeatherCatV1.15B25,2013-04-18 02:29:00,
2013-04-17 22:34:00,50.9,40.0,30.08,NNE,23,0.0,0.0,66,0.00,,,0.00,WeatherCatV1.15B25,2013-04-18 02:34:00,
2013-04-17 22:39:00,50.9,40.3,30.08,NNE,23,0.0,1.0,67,0.00,,,0.00,WeatherCatV1.15B25,2013-04-18 02:39:00,
2013-04-17 22:44:00,50.8,40.2,30.08,NNE,23,0.0,0.0,67,0.00,,,0.00,WeatherCatV1.15B25,2013-04-18 02:44:00,
2013-04-17 22:49:00,50.8,40.6,30.08,NNE,22,0.0,0.0,68,0.00,,,0.00,WeatherCatV1.15B25,2013-04-18 02:49:00,
2013-04-17 22:54:00,50.9,40.3,30.07,NNE,22,0.0,0.0,67,0.00,,,0.00,WeatherCatV1.15B25,2013-04-18 02:54:00,
2013-04-17 22:59:00,51.0,40.0,30.07,NNE,23,0.0,0.0,66,0.00,,,0.00,WeatherCatV1.15B25,2013-04-18 02:59:00,
2013-04-17 23:04:00,51.4,40.0,30.07,NNE,23,0.0,0.0,65,0.00,,,0.00,WeatherCatV1.15B25,2013-04-18 03:04:00,
2013-04-17 23:09:00,51.8,40.0,30.07,NNE,22,0.0,0.0,64,0.00,,,0.00,WeatherCatV1.15B25,2013-04-18 03:09:00,
2013-04-17 23:14:00,52.0,40.2,30.07,NNE,23,0.0,0.0,64,0.00,,,0.00,WeatherCatV1.15B25,2013-04-18 03:14:00,
2013-04-17 23:19:00,52.1,39.9,30.07,NNE,23,0.0,0.0,63,0.00,,,0.00,WeatherCatV1.15B25,2013-04-18 03:19:00,
2013-04-17 23:24:00,52.2,40.0,30.07,NNE,23,0.0,0.0,63,0.00,,,0.00,WeatherCatV1.15B25,2013-04-18 03:24:00,
2013-04-17 23:29:00,52.3,40.1,30.07,NNE,22,0.0,0.0,63,0.00,,,0.00,WeatherCatV1.15B25,2013-04-18 03:29:00,
2013-04-17 23:34:00,52.5,40.7,30.09,WNW,292,3.0,3.0,64,0.00,,,0.00,WeatherCatV1.15B25,2013-04-18 03:34:00,
2013-04-17 23:39:00,50.3,39.0,30.13,WSW,250,3.0,6.0,65,0.00,,,0.00,WeatherCatV1.15B25,2013-04-18 03:39:00,
2013-04-17 23:44:00,46.3,36.7,30.09,ENE,71,4.0,4.0,69,0.00,,,0.00,WeatherCatV1.15B25,2013-04-18 03:44:00,
2013-04-17 23:49:00,45.4,36.6,30.09,ENE,71,2.0,5.0,71,0.00,,,0.00,WeatherCatV1.15B25,2013-04-18 03:49:00,
2013-04-17 23:54:00,45.3,37.2,30.13,NNE,29,4.0,4.0,73,0.00,,,0.00,WeatherCatV1.15B25,2013-04-18 03:54:00,
2013-04-17 23:59:00,45.3,37.2,30.12,NE,45,5.0,10.0,73,0.00,,,0.00,WeatherCatV1.15B25,2013-04-18 03:59:00,